N7MLR Weather Reports


Display with metric or nautical units.
time (UTC)temp
F
wind
direction
speed
MPH
gust
MPH
rain 1hr
in
rain 24hr
in
rain mn
in
humidity
%
barometer
mb
20260901001507 93 230 2.0 3.0 0.00 0.00 0.00 45 1013.2
20260901001003 93 220 1.0 1.0 0.00 0.00 0.00 45 1013.1
20260901000458 94 210 0.0 1.0 0.00 0.00 0.00 44 1013.2
20260831235956 94 212 1.0 1.0 0.00 0.00 0.00 43 1013.1
20260831235451 94 220 0.0 1.0 0.00 0.00 0.00 43 1013.1
20260831234947 94 243 1.0 2.0 0.00 0.00 0.00 43 1013.2
20260831234441 94 223 0.0 1.0 0.00 0.00 0.00 42 1013.1
20260831233937 95 213 1.0 2.0 0.00 0.00 0.00 42 1013.3
20260831233432 95 348 3.0 5.0 0.00 0.00 0.00 41 1013.3
20260831232927 95 216 0.0 1.0 0.00 0.00 0.00 43 1013.2
20260831232423 95 220 2.0 3.0 0.00 0.00 0.00 43 1013.0
20260831231919 95 227 1.0 2.0 0.00 0.00 0.00 42 1013.2
20260831231415 95 231 2.0 2.0 0.00 0.00 0.00 43 1013.2
20260831230911 96 213 0.0 1.0 0.00 0.00 0.00 43 1013.3
20260831230405 95 220 0.0 1.0 0.00 0.00 0.00 44 1013.2
20260831225859 95 197 1.0 2.0 0.00 0.00 0.00 44 1013.4
20260831225355 95 336 3.0 5.0 0.00 0.00 0.00 44 1013.4
20260831224850 96 216 0.0 1.0 0.00 0.00 0.00 44 1013.4
20260831224345 96 278 1.0 2.0 0.00 0.00 0.00 43 1013.5
20260831223839 95 229 1.0 1.0 0.00 0.00 0.00 43 1013.4
20260831223335 95 231 2.0 3.0 0.00 0.00 0.00 43 1013.2
20260831222832 96 197 1.0 2.0 0.00 0.00 0.00 43 1013.3
20260831222327 96 234 1.0 1.0 0.00 0.00 0.00 44 1013.3
20260831221827 96 224 0.0 1.0 0.00 0.00 0.00 44 1013.5
20260831221323 96 203 0.0 1.0 0.00 0.00 0.00 43 1013.5
20260831220818 96 211 1.0 1.0 0.00 0.00 0.00 44 1014.0
20260831220313 96 219 0.0 1.0 0.00 0.00 0.00 43 1014.1
20260831215808 96 209 1.0 1.0 0.00 0.00 0.00 43 1013.8
20260831215306 97 239 0.0 1.0 0.00 0.00 0.00 42 1013.8
20260831214801 98 317 2.0 5.0 0.00 0.00 0.00 42 1013.8
20260831214258 97 209 0.0 1.0 0.00 0.00 0.00 42 1014.1
20260831213753 97 30 1.0 2.0 0.00 0.00 0.00 43 1014.1
20260831213250 96 253 1.0 2.0 0.00 0.00 0.00 44 1014.1
20260831212750 96 211 1.0 1.0 0.00 0.00 0.00 43 1014.2
20260831212247 96 193 1.0 2.0 0.00 0.00 0.00 43 1014.2
20260831211745 96 285 2.0 2.0 0.00 0.00 0.00 43 1014.2
20260831211240 97 202 2.0 2.0 0.00 0.00 0.00 42 1014.2
20260831210735 97 205 1.0 2.0 0.00 0.00 0.00 43 1014.6
20260831210231 98 212 2.0 3.0 0.00 0.00 0.00 42 1014.6
20260831205730 97 260 1.0 2.0 0.00 0.00 0.00 44 1014.5
20260831205227 97 246 1.0 2.0 0.00 0.00 0.00 42 1014.6
20260831204721 97 165 2.0 2.0 0.00 0.00 0.00 42 1014.9
20260831204220 97 344 1.0 2.0 0.00 0.00 0.00 45 1014.9
20260831203714 97 202 0.0 1.0 0.00 0.00 0.00 44 1015.1
20260831203214 95 211 2.0 3.0 0.00 0.00 0.00 46 1015.1
20260831202712 95 209 1.0 1.0 0.00 0.00 0.00 47 1015.1
20260831202207 94 216 4.0 6.0 0.00 0.00 0.00 48 1015.2
20260831201707 96 223 1.0 1.0 0.00 0.00 0.00 46 1015.2
20260831201201 95 250 4.0 6.0 0.00 0.00 0.00 47 1015.4
20260831200657 96 222 2.0 2.0 0.00 0.00 0.00 47 1015.4
20260831200156 97 198 1.0 1.0 0.00 0.00 0.00 45 1015.5
20260831195652 97 209 1.0 2.0 0.00 0.00 0.00 46 1015.7
20260831195148 95 205 1.0 1.0 0.00 0.00 0.00 48 1015.7
20260831194642 95 235 3.0 5.0 0.00 0.00 0.00 47 1015.7
20260831194138 97 205 3.0 6.0 0.00 0.00 0.00 46 1016.0
20260831193632 97 195 3.0 5.0 0.00 0.00 0.00 46 1016.0
20260831193127 95 218 2.0 2.0 0.00 0.00 0.00 47 1015.9
20260831192622 96 218 0.0 1.0 0.00 0.00 0.00 47 1016.0
20260831192118 95 185 4.0 7.0 0.00 0.00 0.00 47 1016.1
20260831191614 96 240 1.0 1.0 0.00 0.00 0.00 47 1016.1
20260831191109 96 203 3.0 3.0 0.00 0.00 0.00 47 1016.2
20260831190604 95 257 2.0 2.0 0.00 0.00 0.00 49 1016.2
20260831185559 96 162 3.0 5.0 0.00 0.00 0.00 47 1016.1
20260831185055 96 199 1.0 2.0 0.00 0.00 0.00 49 1016.2
20260831184554 93 184 2.0 3.0 0.00 0.00 0.00 50 1016.3
20260831184050 93 309 1.0 1.0 0.00 0.00 0.00 52 1016.4
20260831183549 95 238 3.0 6.0 0.00 0.00 0.00 49 1016.5
20260831183048 94 193 2.0 3.0 0.00 0.00 0.00 50 1016.5
20260831182543 93 279 3.0 5.0 0.00 0.00 0.00 51 1016.9
20260831182039 95 157 2.0 3.0 0.00 0.00 0.00 49 1016.6
20260831181538 96 351 3.0 5.0 0.00 0.00 0.00 47 1016.5
20260831181038 95 180 1.0 2.0 0.00 0.00 0.00 49 1017.0
20260831180534 96 183 3.0 3.0 0.00 0.00 0.00 47 1016.7
20260831180028 94 213 1.0 2.0 0.00 0.00 0.00 50 1016.7
20260831175524 93 295 1.0 2.0 0.00 0.00 0.00 51 1017.0
20260831175020 93 189 3.0 3.0 0.00 0.00 0.00 50 1016.9
20260831174515 95 246 4.0 5.0 0.00 0.00 0.00 47 1017.0
20260831174015 93 247 1.0 1.0 0.00 0.00 0.00 53 1016.9
20260831173513 94 213 1.0 1.0 0.00 0.00 0.00 51 1017.0
20260831173010 95 220 2.0 2.0 0.00 0.00 0.00 51 1017.3
20260831172504 94 139 3.0 3.0 0.00 0.00 0.00 50 1017.1
20260831171959 93 185 3.0 3.0 0.00 0.00 0.00 50 1017.3
20260831171455 95 212 1.0 1.0 0.00 0.00 0.00 51 1017.3
20260831170952 94 208 1.0 2.0 0.00 0.00 0.00 52 1017.2
20260831170448 91 153 3.0 3.0 0.00 0.00 0.00 55 1017.4
20260831165945 91 187 1.0 2.0 0.00 0.00 0.00 57 1017.6
20260831165440 90 215 1.0 1.0 0.00 0.00 0.00 58 1017.3
20260831164937 90 245 1.0 2.0 0.00 0.00 0.00 58 1017.5
20260831164432 91 203 2.0 2.0 0.00 0.00 0.00 55 1017.5
20260831163927 92 235 2.0 3.0 0.00 0.00 0.00 57 1017.5
20260831163423 92 336 2.0 3.0 0.00 0.00 0.00 57 1017.3
20260831162921 92 216 1.0 2.0 0.00 0.00 0.00 59 1017.2
20260831162417 92 147 3.0 3.0 0.00 0.00 0.00 57 1017.6
20260831161915 92 215 1.0 2.0 0.00 0.00 0.00 57 1017.7
20260831161412 91 202 1.0 2.0 0.00 0.00 0.00 58 1017.4
20260831160907 91 220 1.0 1.0 0.00 0.00 0.00 62 1017.4
20260831160401 89 206 0.0 1.0 0.00 0.00 0.00 64 1017.5
20260831155856 89 134 2.0 2.0 0.00 0.00 0.00 66 1017.4
20260831155356 89 159 2.0 2.0 0.00 0.00 0.00 66 1017.2
20260831154852 88 206 0.0 1.0 0.00 0.00 0.00 68 1017.3
20260831154349 86 155 2.0 2.0 0.00 0.00 0.00 69 1017.4
20260831153846 86 165 2.0 2.0 0.00 0.00 0.00 71 1017.0
20260831153343 86 215 1.0 1.0 0.00 0.00 0.00 69 1017.2
20260831152839 88 257 2.0 2.0 0.00 0.00 0.00 68 1017.0
20260831152334 87 205 1.0 1.0 0.00 0.00 0.00 69 1016.9
20260831151830 87 222 1.0 2.0 0.00 0.00 0.00 72 1017.0
20260831151328 88 260 1.0 2.0 0.00 0.00 0.00 70 1017.2
20260831150824 86 167 2.0 2.0 0.00 0.00 0.00 72 1017.1
20260831150319 87 260 1.0 2.0 0.00 0.00 0.00 71 1017.1
20260831145818 85 215 1.0 1.0 0.00 0.00 0.00 74 1017.1
20260831145315 84 207 1.0 1.0 0.00 0.00 0.00 76 1017.2
20260831144810 84 235 3.0 3.0 0.00 0.00 0.00 78 1017.1
20260831144306 84 205 1.0 1.0 0.00 0.00 0.00 79 1017.0
20260831143806 82 185 2.0 2.0 0.00 0.00 0.00 82 1017.0
20260831143301 82 237 1.0 1.0 0.00 0.00 0.00 82 1017.0
20260831142756 82 228 2.0 2.0 0.00 0.00 0.00 82 1017.0
20260831142252 81 221 1.0 1.0 0.00 0.00 0.00 86 1016.9
20260831141751 80 188 1.0 1.0 0.00 0.00 0.00 86 1017.0
20260831141246 81 178 2.0 2.0 0.00 0.00 0.00 86 1017.0
20260831140741 80 214 0.0 1.0 0.00 0.00 0.00 87 1016.7
20260831140235 80 202 1.0 1.0 0.00 0.00 0.00 87 1016.7
20260831135732 80 202 2.0 2.0 0.00 0.00 0.00 87 1016.7
20260831135228 80 217 1.0 1.0 0.00 0.00 0.00 89 1016.7
20260831134724 79 222 0.0 1.0 0.00 0.00 0.00 91 1016.6
20260831134221 78 208 1.0 1.0 0.00 0.00 0.00 92 1016.6
20260831133719 78 222 0.0 1.0 0.00 0.00 0.00 94 1016.7
20260831133214 77 202 0.0 1.0 0.00 0.00 0.00 95 1016.7
20260831132709 76 202 0.0 0.0 0.00 0.00 0.00 96 1016.5
20260831132208 76 201 0.0 0.0 0.00 0.00 0.00 97 1016.9
20260831131703 75 204 0.0 0.0 0.00 0.00 0.00 97 1016.6
20260831131200 76 204 0.0 0.0 0.00 0.00 0.00 97 1016.9
20260831130655 75 202 0.0 0.0 0.00 0.00 0.00 98 1016.6
20260831130150 73 204 0.0 0.0 0.00 0.00 0.00 98 1016.5
20260831125648 73 208 0.0 0.0 0.00 0.00 0.00 98 1016.5
20260831125144 73 208 0.0 0.0 0.00 0.00 0.00 98 1016.4
20260831124640 73 208 0.0 0.0 0.00 0.00 0.00 98 1016.5
20260831124136 73 204 0.0 0.0 0.00 0.00 0.00 98 1016.3
20260831123636 73 201 0.0 0.0 0.00 0.00 0.00 98 1016.4
20260831123135 73 201 0.0 0.0 0.00 0.00 0.00 97 1016.2
20260831122634 73 200 0.0 0.0 0.00 0.00 0.00 97 1016.2
20260831122131 73 201 0.0 0.0 0.00 0.00 0.00 97 1016.0
20260831121630 73 201 0.0 0.0 0.00 0.00 0.00 97 1016.1
20260831121126 73 201 0.0 0.0 0.00 0.00 0.00 97 1015.9
20260831120621 73 201 0.0 0.0 0.00 0.00 0.00 97 1015.8
20260831120116 73 201 0.0 0.0 0.00 0.00 0.00 97 1016.2
20260831115612 73 201 0.0 0.0 0.00 0.00 0.00 97 1015.7
20260831115107 73 200 0.0 0.0 0.00 0.00 0.00 96 1015.9
20260831114606 73 201 0.0 0.0 0.00 0.00 0.00 96 1015.9
20260831114101 73 200 0.0 0.0 0.00 0.00 0.00 96 1015.6
20260831113600 74 200 0.0 0.0 0.00 0.00 0.00 96 1015.8
20260831113056 74 200 0.0 0.0 0.00 0.00 0.00 96 1015.8
20260831112555 74 200 0.0 0.0 0.00 0.00 0.00 96 1015.8
20260831112050 74 200 0.0 0.0 0.00 0.00 0.00 96 1016.0
20260831111547 74 201 0.0 0.0 0.00 0.00 0.00 95 1015.8
20260831111042 74 200 0.0 0.0 0.00 0.00 0.00 95 1016.0
20260831110537 74 201 0.0 0.0 0.00 0.00 0.00 95 1016.0
20260831110032 75 201 0.0 0.0 0.00 0.00 0.00 95 1016.0
20260831105531 75 201 0.0 0.0 0.00 0.00 0.00 95 1015.9
20260831105026 75 201 0.0 0.0 0.00 0.00 0.00 94 1015.7
20260831104523 75 201 0.0 0.0 0.00 0.00 0.00 94 1015.8
20260831104018 75 201 0.0 0.0 0.00 0.00 0.00 94 1016.1
20260831103513 76 201 0.0 0.0 0.00 0.00 0.00 94 1016.0
20260831103009 76 201 0.0 0.0 0.00 0.00 0.00 93 1016.0
20260831102503 76 201 0.0 0.0 0.00 0.00 0.00 92 1016.0
20260831101958 76 201 0.0 0.0 0.00 0.00 0.00 91 1016.2
20260831101453 77 200 0.0 0.0 0.00 0.00 0.00 90 1016.1
20260831100949 76 202 0.0 0.0 0.00 0.00 0.00 91 1016.2
20260831100445 76 204 0.0 1.0 0.00 0.00 0.00 92 1016.1
20260831095940 75 202 0.0 1.0 0.00 0.00 0.00 93 1016.0
20260831095439 74 201 0.0 0.0 0.00 0.00 0.00 95 1016.2
20260831094934 74 201 0.0 0.0 0.00 0.00 0.00 94 1016.0
20260831094430 74 201 0.0 0.0 0.00 0.00 0.00 94 1016.0
20260831093926 74 202 0.0 0.0 0.00 0.00 0.00 94 1015.9
20260831093420 74 202 0.0 0.0 0.00 0.00 0.00 93 1015.7
20260831092918 74 204 0.0 0.0 0.00 0.00 0.00 93 1015.7
20260831092413 74 204 0.0 0.0 0.00 0.00 0.00 93 1015.8
20260831091908 74 204 0.0 0.0 0.00 0.00 0.00 92 1016.0
20260831091403 75 208 0.0 0.0 0.00 0.00 0.00 92 1015.8
20260831090858 75 208 0.0 0.0 0.00 0.00 0.00 91 1015.9
20260831090354 75 208 0.0 0.0 0.00 0.00 0.00 90 1015.8
20260831085851 75 208 0.0 0.0 0.00 0.00 0.00 90 1016.2
20260831085344 76 204 0.0 0.0 0.00 0.00 0.00 89 1015.9
20260831084839 76 204 0.0 0.0 0.00 0.00 0.00 88 1016.0
20260831084335 77 208 0.0 1.0 0.00 0.00 0.00 87 1015.9
20260831083831 77 201 1.0 1.0 0.00 0.00 0.00 86 1016.1
20260831083327 77 205 0.0 0.0 0.00 0.00 0.00 86 1016.0
20260831082825 77 202 0.0 0.0 0.00 0.00 0.00 87 1016.2
20260831082320 76 205 1.0 1.0 0.00 0.00 0.00 88 1016.0
20260831081816 75 207 0.0 0.0 0.00 0.00 0.00 90 1016.4
20260831081311 74 217 1.0 1.0 0.00 0.00 0.00 91 1016.0
20260831080807 75 222 0.0 0.0 0.00 0.00 0.00 90 1016.3
20260831080301 75 222 0.0 0.0 0.00 0.00 0.00 90 1016.1
20260831075757 75 222 0.0 0.0 0.00 0.00 0.00 89 1016.1
20260831075252 75 222 0.0 0.0 0.00 0.00 0.00 89 1016.5
20260831074752 75 222 0.0 0.0 0.00 0.00 0.00 88 1016.3
20260831074246 76 222 0.0 0.0 0.00 0.00 0.00 88 1016.3
20260831073742 76 222 0.0 0.0 0.00 0.00 0.00 87 1016.1
20260831073241 76 222 0.0 0.0 0.00 0.00 0.00 86 1016.1
20260831072736 77 222 0.0 0.0 0.00 0.00 0.00 85 1016.1
20260831072232 77 222 0.0 0.0 0.00 0.00 0.00 85 1016.2
20260831071733 78 225 1.0 2.0 0.00 0.00 0.00 83 1016.1
20260831071227 78 216 0.0 0.0 0.00 0.00 0.00 82 1016.2
20260831070721 79 202 0.0 1.0 0.00 0.00 0.00 81 1016.2
20260831070215 79 200 1.0 1.0 0.00 0.00 0.00 80 1016.1
20260831065714 79 203 0.0 1.0 0.00 0.00 0.00 80 1016.1
20260831065213 80 202 1.0 1.0 0.00 0.00 0.00 79 1016.2
20260831064708 80 205 0.0 1.0 0.00 0.00 0.00 79 1016.3
20260831064202 80 198 1.0 2.0 0.00 0.00 0.00 78 1016.4
20260831063659 80 215 0.0 0.0 0.00 0.00 0.00 79 1016.5
20260831063149 78 214 0.0 1.0 0.00 0.00 0.00 81 1016.5
20260831062649 78 224 0.0 1.0 0.00 0.00 0.00 81 1016.2
20260831062148 79 215 0.0 0.0 0.00 0.00 0.00 80 1016.3
20260831061646 79 223 1.0 1.0 0.00 0.00 0.00 80 1016.0
20260831061142 79 233 1.0 1.0 0.00 0.00 0.00 79 1016.1
20260831060638 79 253 2.0 3.0 0.00 0.00 0.00 79 1016.1
20260831060138 79 225 1.0 2.0 0.00 0.00 0.00 78 1016.0
20260831055637 79 226 1.0 1.0 0.00 0.00 0.00 78 1016.2
20260831055133 80 142 1.0 2.0 0.00 0.00 0.00 77 1016.1
20260831054632 80 224 0.0 1.0 0.00 0.00 0.00 76 1016.0
20260831054132 81 227 1.0 1.0 0.00 0.00 0.00 75 1015.9
20260831053627 82 237 1.0 2.0 0.00 0.00 0.00 73 1016.1
20260831053126 82 309 1.0 2.0 0.00 0.00 0.00 73 1016.0
20260831052625 82 213 0.0 1.0 0.00 0.00 0.00 72 1015.9
20260831052124 82 197 1.0 2.0 0.00 0.00 0.00 72 1015.9
20260831051622 82 283 3.0 5.0 0.00 0.00 0.00 72 1015.8
20260831051115 83 246 1.0 2.0 0.00 0.00 0.00 70 1015.9
20260831050610 83 205 0.0 1.0 0.00 0.00 0.00 69 1015.8
20260831050108 83 224 1.0 2.0 0.00 0.00 0.00 70 1015.9
20260831045603 83 111 3.0 3.0 0.00 0.00 0.00 69 1015.8
20260831045058 83 248 1.0 1.0 0.00 0.00 0.00 68 1015.7
20260831044553 83 242 1.0 1.0 0.00 0.00 0.00 68 1015.8
20260831044048 82 211 0.0 0.0 0.00 0.00 0.00 71 1015.6
20260831043544 82 225 0.0 1.0 0.00 0.00 0.00 70 1015.7
20260831043039 82 221 0.0 1.0 0.00 0.00 0.00 69 1015.4
20260831042538 83 228 1.0 1.0 0.00 0.00 0.00 69 1015.5
20260831042033 83 222 0.0 0.0 0.00 0.00 0.00 68 1015.5
20260831041528 83 251 2.0 3.0 0.00 0.00 0.00 68 1015.6
20260831041027 83 311 1.0 2.0 0.00 0.00 0.00 68 1015.4
20260831040522 84 225 2.0 2.0 0.00 0.00 0.00 67 1015.5
20260831040022 85 223 1.0 1.0 0.00 0.00 0.00 66 1015.4
20260831035520 85 221 1.0 1.0 0.00 0.00 0.00 64 1015.5
20260831035015 85 215 1.0 1.0 0.00 0.00 0.00 64 1015.4
20260831034509 86 232 0.0 1.0 0.00 0.00 0.00 64 1015.2
20260831034005 86 145 1.0 2.0 0.00 0.00 0.00 63 1015.4
20260831033500 86 257 0.0 1.0 0.00 0.00 0.00 63 1015.3
20260831032956 86 220 1.0 2.0 0.00 0.00 0.00 63 1015.2
20260831032455 86 220 1.0 2.0 0.00 0.00 0.00 63 1015.1
20260831031951 87 210 1.0 2.0 0.00 0.00 0.00 63 1015.1
20260831031450 87 288 3.0 3.0 0.00 0.00 0.00 62 1015.0
20260831030949 87 208 1.0 2.0 0.00 0.00 0.00 63 1015.1
20260831030449 87 211 1.0 2.0 0.00 0.00 0.00 62 1014.9
20260831025947 87 204 0.0 1.0 0.00 0.00 0.00 61 1014.7
20260831025446 87 261 2.0 3.0 0.00 0.00 0.00 61 1014.8
20260831024942 87 206 1.0 2.0 0.00 0.00 0.00 62 1014.6
20260831024443 87 224 1.0 1.0 0.00 0.00 0.00 62 1014.6
20260831023937 88 11 2.0 2.0 0.00 0.00 0.00 61 1014.3
20260831023435 87 213 0.0 1.0 0.00 0.00 0.00 62 1014.2
20260831022930 87 206 1.0 1.0 0.00 0.00 0.00 62 1014.1
20260831022429 87 205 1.0 1.0 0.00 0.00 0.00 62 1014.1
20260831021924 88 213 1.0 1.0 0.00 0.00 0.00 61 1013.8
20260831021418 88 214 0.0 1.0 0.00 0.00 0.00 61 1013.8
20260831020914 88 232 1.0 1.0 0.00 0.00 0.00 60 1013.6
20260831020413 89 212 1.0 1.0 0.00 0.00 0.00 59 1013.7
20260831015908 89 211 0.0 1.0 0.00 0.00 0.00 59 1013.7
20260831015405 89 218 1.0 2.0 0.00 0.00 0.00 59 1013.6
20260831014904 89 215 0.0 1.0 0.00 0.00 0.00 58 1013.6
20260831014359 89 220 3.0 3.0 0.00 0.00 0.00 58 1013.6
20260831013855 89 262 1.0 1.0 0.00 0.00 0.00 57 1013.4
20260831013350 89 239 2.0 3.0 0.00 0.00 0.00 57 1013.5
20260831012844 89 199 0.0 1.0 0.00 0.00 0.00 57 1013.0
20260831012340 89 199 1.0 1.0 0.00 0.00 0.00 57 1013.2
20260831011839 89 200 0.0 1.0 0.00 0.00 0.00 56 1013.1
20260831011335 89 201 1.0 1.0 0.00 0.00 0.00 57 1013.2
20260831010831 90 204 0.0 1.0 0.00 0.00 0.00 56 1013.1
20260831010330 90 208 0.0 1.0 0.00 0.00 0.00 55 1013.2
20260831005826 90 210 0.0 1.0 0.00 0.00 0.00 54 1013.0
20260831005322 91 206 0.0 1.0 0.00 0.00 0.00 54 1013.0
20260831004816 91 206 1.0 1.0 0.00 0.00 0.00 54 1013.1
20260831004313 91 210 0.0 1.0 0.00 0.00 0.00 53 1013.0
20260831003808 91 216 1.0 1.0 0.00 0.00 0.00 52 1013.0
20260831003304 92 210 1.0 1.0 0.00 0.00 0.00 53 1012.8
20260831002803 92 215 0.0 1.0 0.00 0.00 0.00 51 1013.0
20260831002257 92 213 0.0 1.0 0.00 0.00 0.00 51 1013.1